Location: Unspecified
(0.0000°N, 0.0000°E)
Time: 05:45:09
(UTC+00:00)

Vanguard 3 - Pass Details

Date: 13 April 2021
Orbit: 507 x 3262 km, 33.4° (Epoch: 17 May)

Event Time Altitude Azimuth Distance (km) Brightness Sun altitude
Rises 21:49:45 0° 226° (SW) 6,062 11.8 -56.2°
Reaches altitude 10° 21:54:43 10° 220° (SW) 4,589 11.0 -57.3°
Enters shadow 21:56:03 13° 218° (SW) 4,180 10.8 -57.7°
